National Weather Service United States Department of Commerce

Winter Makes A Comeback Tonight - Friday

A storm system will move into the Upper Great Lakes region tonight, bringing a wintry mix of precipitation to parts of northern Michigan and rain with a chance of thunderstorms further south. Read More >

Observations from across/near northern Michigan

Marine Observations

Michigan Hourly Observations

 

Yesterday's high, low and precipitation reports from across northern Michigan

Northern Michigan Temperatures and Precipitation

 

Observation Text Products


000
SXUS83 KAPX 240726
OMRAPX

MARINE OBSERVATIONS
NATIONAL WEATHER SERVICE GAYLORD MI
226 AM EST FRI FEB 24 2017

WIND DATA (KTS) WAVES
SITE DATE/TIME DIR SPEED GUST (FT) SITE NAME
--------------------------------------------------

LAKE SUPERIOR/ST MARYS RIVER

GRMM4 240700Z 20 14 22 Grand Marais
WFPM4 240640Z 50 8 12 Whitefish Point
PTIM4 240700Z 10 5 6 Point Iroquois
CYAM 240700Z 20 4 SOO (Canada)
KANJ 240655Z 40 3 Sault Ste Marie
SWPM4 240700Z 60 5 6 S.W. Pier
LTRM4 240700Z 40 4 5 Little Rapids
RCKM4 240700Z 360 5 7 Rock Cut
WNEM4 240700Z 10 3 5 West Nebish Island

LAKE HURON

DTLM4 240700Z 10 12 16 DeTour Village
KDRM 240715Z 350 4 Drummond Island
KMCD 240715Z 40 7 Mackinac Island
MACM4 240700Z 70 3 5 Mackinac City
KSLH 240715Z 40 5 Cheboygan Airport
KPZQ 240715Z 350 9 Rogers City
KAPN 240654Z 350 11 Alpena Guard Base
APNM4 240710Z 360 7 10 Alpena Harbor Light
TBIM4 240650Z 340 9 15 Thunder Bay Island
KOSC 240714Z 10 8 Oscoda
TAWM4 240640Z 20 5 10 Tawas Point
GSLM4 240704Z 10 15 18 Gravelly Shoals
KP58 240651Z 20 13 Port Hope

LAKE MICHIGAN

KISQ 240715Z 10 5 Manistique
PNLM4 240700Z 360 3 5 Port Inland
WSLM4 240700Z 50 6 White Shoal Light
KSJX 240717Z CALM St James
KPLN 240654Z CALM Pellston
KMGN 240715Z 70 5 Harbor Springs
KCVX 240714Z 60 8 Charlevoix
GTLM4 240713Z 60 19 25 Grand Traverse Light
KTVC 240700Z 50 11 Traverse City
KFKS 240714Z 60 11 18 Frankfort
MEEM4 240640Z 50 11 14 Manistee Harbor
BSBM4 240640Z 40 13 19 Big Sable Point
LDTM4 240700Z 60 6 11 Ludington
KLDM 240714Z 60 6 Ludington Airport


000
ASUS43 KDTX 240810
RWRMI
MICHIGAN HOURLY REGIONAL WEATHER ROUNDUP
NATIONAL WEATHER SERVICE DETROIT/PONTIAC MI
300 AM EST FRI FEB 24 2017

NOTE: "FAIR" INDICATES FEW OR NO CLOUDS BELOW 12,000 FEET WITH NO
SIGNIFICANT WEATHER AND/OR OBSTRUCTION TO VISIBILITY.

MIZ047>049-052>055-059>063-066>070-074>076-081>083-240900-
SOUTHEAST LOWER MICHIGAN

CITY SKY/WX TMP DP RH WIND PRES REMARKS
ADRIAN LGT RAIN 41 40 96 E17 29.73F
ALMA FLURRIES 35 33 92 NE22 29.79F WCI 23
ANN ARBOR CLOUDY 39 38 96 NE9 29.74F WCI 33
BAD AXE MIX PCPN 33 30 91 NE8 29.84F WCI 25
CARO LGT RAIN 35 33 92 NE7 29.82S WCI 29
DETROIT CITY CLOUDY 39 38 96 NE13 29.76F WCI 31
DETROIT LGT RAIN 41 39 93 NE10 29.77F FOG
FLINT RAIN 37 35 92 E13 29.79F FOG WCI 29
GROSSE ILE CLOUDY 39 38 94 NE14 29.74F WCI 31
HILLSDALE CLOUDY 41 37 87 E15 29.69F
HOWELL LGT SNOW 37 35 90 E8 29.75F WCI 31

CITY SKY/WX TMP DP RH WIND PRES REMARKS
JACKSON CLOUDY 40 37 89 E12 29.71F WCI 33
LAMBERTVILLE CLOUDY 43 40 87 E9 29.73F
LANSING LGT RAIN 37 34 89 E12 29.76F WCI 29
LAPEER RAIN 36 35 96 NE9 29.79F WCI 29
MASON CLOUDY 38 37 96 E6 29.74F WCI 33
MONROE CLOUDY 41 40 96 E10 29.72F
MT. CLEMENS CLOUDY 38 38 99 NE13 29.76F WCI 30
PONTIAC CLOUDY 38 34 85 E13 29.74F WCI 30
PORT HOPE N/A 35 31 85 NE17 29.84F WCI 25
PORT HURON LGT RAIN 36 36 100 NE12 29.81F WCI 27
TRI CITIES LGT RAIN 34 31 88 NE22 29.81F FOG WCI 22
MIDLAND MIX PCPN 34 32 93 NE9G17 29.82F WCI 26
TROY CLOUDY 39 36 87 NE14 29.79F WCI 31
SAGINAW HB MIX PCPN 34 32 93 NE15 29.82F WCI 24
$$
MIZ043>046-050>051-056>058-064>065-071>073-077>080-240900-
SOUTHWEST LOWER MICHIGAN

CITY SKY/WX TMP DP RH WIND PRES REMARKS
BATTLE CREEK CLOUDY 44 42 93 E14 29.69F
BENTON HARBOR CLOUDY 48 45 89 E10G20 29.60F
BIG RAPIDS LGT SNOW 33 32 94 NE5 29.80R WCI 29
COLDWATER CLOUDY 44 42 91 E9G17 29.67F
FREMONT MIX PCPN 35 35 99 E15G21 29.74F WCI 25
HOLLAND RAIN 43 40 89 E12G22 29.66F
GRAND RAPIDS LGT RAIN 39 37 92 E20G29 29.70F WCI 29
IONIA LGT SNOW 36 35 94 E13G24 29.74S WCI 28
KALAMAZOO LGT RAIN 46 41 82 E16G23 29.66F
LUDINGTON LGT SNOW 32 32 100 NE10 29.77F WCI 24
MARSHALL CLOUDY 42 41 95 E7G17 29.70F
MOUNT PLEASANT LGT RAIN 34 33 94 NE10 29.78F WCI 26
MUSKEGON CLOUDY 38 35 89 NE16 29.71F WCI 29
SOUTH HAVEN CLOUDY 44 43 97 E10G18 29.62F
$$
MIZ016>042-240900-
NORTHERN LOWER MICHIGAN

CITY SKY/WX TMP DP RH WIND PRES REMARKS
ALPENA FLURRIES 32 25 75 N10 29.87F WCI 24
BEAVER ISLAND CLOUDY 31 25 80 NE3 29.88F
BELLAIRE LGT SNOW 30 27 89 NE8 29.85F WCI 22
CADILLAC LGT SNOW 30 29 94 E14G20 29.77F WCI 19
CHARLEVOIX CLOUDY 32 24 71 NE9 29.89F WCI 24
FRANKFORT LGT SNOW 31 29 94 NE5 29.85R VSB 3/4 WCI 26
GAYLORD LGT SNOW 29 22 75 NE10G18 29.81F WCI 20
GRAYLING LGT SNOW 29 26 88 NE10 29.84F WCI 20
HARBOR SPRINGS CLOUDY 31 23 71 E8 29.87F WCI 24
HOUGHTON LAKE FLURRIES 30 24 78 NE12 29.83F WCI 20
MANISTEE LGT SNOW 30 29 96 NE14 29.82S VSB 1 WCI 19
OSCODA CLOUDY 33 24 67 N9 29.85F WCI 26
PELLSTON CLOUDY 31 22 69 NE7 29.88F WCI 24
ROGERS CITY CLOUDY 32 23 70 N10 29.88F WCI 24
TRAVERSE CITY LGT SNOW 30 28 92 E3 29.86R VSB 1
$$
MIZ007>008-015-240900-
EASTERN UPPER MICHIGAN

CITY SKY/WX TMP DP RH WIND PRES REMARKS
KINROSS CLOUDY 29 22 75 NE8 29.90F WCI 21
MACKINAC ISLAN CLOUDY 30 23 76 NE9 29.89F WCI 21
NEWBERRY CLOUDY 29 25 85 N6 29.90S WCI 23
S. S. MARIE PTCLDY 30 20 66 N6 29.89F WCI 24
MUNISING N/A 32 24 72 NE16 29.91F WCI 21
$$
MIZ004>006-011>014-085-240900-
CENTRAL UPPER MICHIGAN

CITY SKY/WX TMP DP RH WIND PRES REMARKS
MANISTIQUE CLOUDY 31 24 75 N9 29.88F WCI 22
ESCANABA CLOUDY 31 25 78 N6 29.89F WCI 25
MENOMINEE CLOUDY 32 25 75 NE16 29.86F WCI 21
SAWYER-GWINN CLOUDY 28 25 87 NE9 29.88F WCI 19
$$
MIZ001>003-009>011-084-240900-
WESTERN UPPER MICHIGAN

CITY SKY/WX TMP DP RH WIND PRES REMARKS
IRON MOUNTAIN CLOUDY 29 20 69 N8 29.87F WCI 21
HOUGHTON CLOUDY 24 15 68 NE13 29.93F WCI 12
COPPER HARBOR N/A 26 18 71 NE20 29.98F WCI 12
IRONWOOD CLOUDY 25 20 81 NE7 29.93R WCI 17
$$

ABBREVIATIONS USED IN REMARKS
TC - TEMPERATURE IN CELSIUS
WCI - WIND CHILL INDEX
HX - HEAT INDEX
VSB - VISIBILITY




000
ASUS63 KAPX 240059
RTPAPX

Eastern Upper/Northern Lower Michigan Temperature and Precip Summary
National Weather Service Gaylord MI
759 PM EST THU FEB 23 2017

18 hour High/Low Temperature ending 7 pm EST
24 hour Precipitation/Snowfall ending 7 pm EST
Snow Depth Observed at 7 pm EST

.BR APX 0223 ES DH19/TAIRZS/TAIRZI/PPDRZZ/SFDRZZ/SDIRZZ
:..................................................................
: MAX MIN 24 HR SNOW SNOW
:ID LOCATION TEMP TEMP PRECIP FALL DEPTH
:..................................................................
ANJ : Sault Ste Marie : 40 / 31 / 0.62 / 0.0 / 15.0
APN : Alpena : 49 / 37 / 0.01 / 0.0 / 0.0
HTL : Houghton Lake : 54 / 36 / 0.00 / 0.0 / 0.0
PLN : Pellston : 41 / 32 / 0.08 / /
TVC : Traverse City : 47 / 36 / T / /
GLR : Gaylord : 50 / 35 / 0.01 / /
.END

Cooperative Observations
Temperature/Precipitation/Snowfall values are for 24 hour period
ending 7 pm EST. Snow Depth is observed at 7 pm EST.
...................................................................
OBS MAX MIN SNOW SNOW
ID LOCATION TIME TEMP TEMP PCPN FALL DEPTH
...................................................................
MAPM4: Maple City 1E :DH1850/ 57 / 34 / 0.03 / 0.0 / 0.0
ONAM4: Onaway 4N :DH1800/ 50 / 35 / 0.17 / 0.0 / T

These data are preliminary and have not undergone final quality
control by the National Climatic Data Center. Therefore...these
data are subject to revision. Final and certified climate data
can be accessed at www.ncdc.noaa.gov.

&&

The following are supplemental temperature and precipitation data.
This includes data which are received from non-National Weather
Service maintained observing systems...as well as reports from
public weather spotters. Data is only partially quality controlled
and is not suitable for official climatological records.

.BR APX 0223 ES DH19/TAIRZS/TAIRZI
:
:Automated Temperature Data--18 hr High/Low ending 7 pm EST
:..................................................................
: MAX MIN
:ID LOCATION TEMP TEMP
:..................................................................
:
ERY : Newberry : 37 / 30
CIU : Kinross : 40 / 29
MCD : Mackinac Island : 39 / 30
DRM : Drummond Island : 38 / 31
SJX : Beaver Island : 39 / 32
SLH : Cheboygan : 41 / 31
PZQ : Rogers City : 45 / 33
CVX : Charlevoix : 42 / 33
MGN : Harbor Springs : 43 / 32
ACB : Bellaire : 45 / 32
FKS : Frankfort : 48 / 36
GOV : Grayling AAF : 54 / 35
MBL : Manistee : 55 / 37
CAD : Cadillac : 55 / 34
Y31 : West Branch : 53 / 40
OSC : Oscoda : 53 / 36
LDM : Ludington : 53 / 37
RQB : Big Rapids : 57 / 38
MOP : Mount Pleasant : 58 / 40
IKW : Midland : 59 / 42
.END

U.S. Forest Service Remote Automated Weather Stations (RAWS)
Data is only partially quality controlled
18 hour High/Low Temperature ending 7 pm EST
Minimum Relative Humidity over past 18 hours
12/24 hour Precipitation ending 7 pm EST
...................................................................
MAX MIN MIN 12 HR 24 HR
ID LOCATION TEMP TEMP RH PRECIP PRECIP
...................................................................
AGRM4: Alger RAWS : 55 / 42 / 63 / 0.00 / 0.00
ATAM4: Atlanta RAWS : 46 / 35 / 69 / 0.00 / 0.00
BCYM4: Barton City RAWS : 53 / 36 / 65 / 0.00 / 0.00
GYGM4: Grayling RAWS : 50 / 34 / 74 / 0.00 / 0.00
INDM4: Indian River RAWS : 41 / 30 / 65 / 0.00 / 0.00
MMOM4: Mio RAWS : 54 / 36 / 70 / 0.00 / 0.00
MTNM4: Manton RAWS : 57 / 37 / 69 / 0.00 / 0.00
NMIM4: N Manitou Island : 40 / 35 / 64 / 0.00 / 0.00
RACM4: Raco RAWS : 38 / 28 / 64 / 0.07 / 0.45
REXM4: Rexton RAWS : 40 / 30 / 53 / 0.00 / 0.00
RSCM4: Roscommon RAWS : 54 / 35 / M / 0.00 / 0.00
RYDM4: Rudyard RAWS : 39 / 29 / 65 / 0.00 / 0.00
SBDM4: The Bear RAWS : 43 / 34 / 59 / 0.00 / 0.01
SCKM4: Silver Creek RAWS : 52 / 44 / 57 / 0.00 / 0.00
WLLM4: Wellston RAWS : 54 / 37 / 69 / 0.00 / 0.00

$$

BERGER